World > North America > United States > Texas > Lampasas  

Lampasas, TX Hourly Weather Updates

Feedback E-mail the Weather

Quick Clicks

Lampasas, TX Weather Maps

°F °C°F °C
Lampasas Weather Map
UTC Time: 5/21/2024, 21:48
Your Time:

Lampasas, TX Regional Weather

Expires:202405212200;;621402
ASUS44 KFWD 212115
RWRTX 
NORTH TEXAS HOURLY WEATHER ROUNDUP
NATIONAL WEATHER SERVICE FORT WORTH TX
400 PM CDT TUE MAY 21 2024

NOTE: "FAIR" INDICATES FEW OR NO CLOUDS BELOW 12,000 FEET WITH NO
SIGNIFICANT WEATHER AND/OR OBSTRUCTIONS TO VISIBILITY.


TXZ143>147-156>162-174-175-212200-
CENTRAL TEXAS
  
CITY           SKY/WX    TMP DP  RH WIND       PRES   REMARKS
WACO           CLOUDY    86  74  67 S7        29.77F HX  94           
WACO-TSTC      MOSUNNY   90  73  58 S7        29.77F HX  98           
WACO-MCGREGOR    N/A     90  75  61 S8        29.77F HX 100           
HILLSBORO      PTSUNNY   87  75  66 S9        29.77F HX  96           
CORSICANA      CLOUDY    90  74  59 S13       29.77F HX  99           
MEXIA          FAIR      90  75  62 MISG      29.77F HX 100           
HEARNE         FAIR      92  76  58 S12       29.78F HX 104           
CAMERON        FAIR      91  74  56 S9        29.77F HX 100           
KILLEEN        NOT AVBL                                               
GATESVILLE     CLOUDY    88  79  74 VRB3      29.78F HX 102           
HAMILTON       FAIR      87  72  61 S9        29.80F HX  94           
$$


SKY/WX - Weather  TMP - Temperature  DP - Dew Point  RH - Humidity
WIND - Wind Direction/Speed PRES - Barometric Pressure VSB - Visibility
WCI - Wind Chill Index E13G22 Wind - East Wind 13 mph/Gusts of 22 mph

Trending Headlines

Trending Entertainment Headlines

Lampasas Radar Loop

Use the map search tool if you want to place a location marker on the radar map...

Lampasas Quick Facts

National Two Day Weather Forecast


E-mail the Lampasas Weather Forecast

Voice your opinion or tell us about page issues...